Theta_e
342 341 340 340 340 341 340 340 340 340 340 340 339 339 337 334 335 336 336 335 334 333 333 334 334 334 335 337 338 338 338 338 337 336 336 336 337 336 335 334 334 333 334 333 333 334 334 333 332 332 331 330 329 329 327 326 326 326 326 326 326 327 327 328 330 332 332 330 329 328 328 328 328 328 327 326 326 323 324 327 326 324 325 327 326
342 341 340 340 340 340 340 340 340 340 340 340 339 338 336 334 335 335 334 334 335 334 334 334 333 333 333 335 336 337 337 337 335 335 335 336 335 335 335 334 335 334 333 332 332 332 333 332 331 330 329 329 328 328 326 325 325 325 325 325 326 326 327 328 329 330 330 330 328 326 326 327 328 328 327 326 326 324 324 326 326 325 325 326 326
342 341 340 340 339 340 340 341 340 340 339 339 338 337 334 333 333 334 334 334 334 333 333 333 333 334 333 333 334 335 336 335 334 334 335 335 334 334 335 335 335 334 331 331 331 332 331 331 330 328 327 327 327 325 323 322 322 322 322 323 323 324 325 326 327 326 327 330 328 325 324 326 327 327 326 326 326 325 324 325 325 325 325 325 325
343 341 339 339 339 340 340 340 339 339 339 338 338 336 334 332 332 334 335 334 333 332 332 333 333 333 333 334 333 334 334 334 333 334 335 334 333 333 334 335 335 334 331 331 331 330 330 329 327 326 326 327 325 322 321 320 320 319 319 319 320 323 324 325 325 325 326 328 327 325 323 324 325 326 325 325 325 325 324 324 325 325 325 324 324
342 340 339 339 339 340 339 339 338 338 338 338 337 336 334 332 333 334 334 333 333 333 333 332 333 333 333 333 333 333 333 333 333 334 334 334 333 332 331 332 333 333 332 331 330 329 329 329 327 326 325 326 324 322 321 320 319 319 318 319 321 324 325 325 325 325 326 327 325 325 324 323 324 324 325 324 324 324 324 324 324 324 324 324 323
341 339 339 339 339 339 338 338 337 338 338 337 337 336 334 333 334 334 333 334 333 333 333 333 333 334 333 333 333 333 333 333 333 333 333 334 333 332 332 331 332 333 333 332 331 328 328 329 327 326 325 324 324 322 322 321 320 320 321 322 324 324 325 325 325 325 326 326 325 325 325 324 324 324 324 324 324 323 324 324 324 323 323 323 322
340 340 340 339 338 337 336 337 337 337 337 337 336 336 335 333 334 334 334 334 333 333 333 333 332 333 333 333 333 333 333 333 333 333 333 334 333 332 333 333 333 334 334 334 332 328 327 327 326 325 324 324 325 323 322 322 321 322 323 323 324 324 325 325 325 324 325 326 325 325 325 324 324 324 324 323 324 324 323 323 324 323 323 322 322
338 340 340 339 338 335 333 335 337 337 336 337 337 337 334 332 333 333 334 334 333 333 332 332 331 332 332 332 332 332 332 333 332 332 332 332 332 331 333 333 333 334 334 333 333 329 325 325 325 325 325 325 325 324 323 322 322 323 323 323 324 324 324 325 325 325 325 325 324 325 325 325 324 324 325 323 324 325 323 323 323 324 323 322 321
336 338 338 338 338 333 332 335 337 336 336 336 336 336 334 333 331 330 332 332 333 333 330 331 330 330 331 331 331 331 331 331 332 331 330 330 331 332 332 332 332 333 333 333 333 330 326 326 325 324 324 324 324 324 324 322 321 323 323 323 323 324 324 324 324 324 325 325 325 325 325 325 324 324 325 325 325 324 323 322 323 324 324 322 322
335 336 337 337 335 331 333 337 336 336 336 335 335 336 335 333 331 329 331 331 331 332 330 329 329 329 330 331 331 331 332 331 331 331 330 330 331 332 332 331 331 332 332 332 331 329 327 327 325 324 324 324 323 324 323 322 321 323 324 323 324 323 324 323 324 323 324 325 326 326 325 326 325 326 328 328 326 324 323 323 323 324 324 323 323
334 335 336 334 331 332 335 337 336 336 336 334 334 335 335 332 329 329 331 331 331 331 330 330 331 331 331 332 331 329 330 330 330 330 331 331 332 332 331 331 332 331 330 329 329 328 327 327 325 324 324 324 323 323 322 321 321 323 323 323 324 323 323 323 323 323 323 324 325 324 324 325 326 327 329 329 327 325 325 325 325 324 324 324 323
335 336 336 331 330 334 336 337 336 337 336 335 333 333 333 331 330 330 331 331 332 332 331 331 332 332 332 332 330 328 329 330 330 330 330 331 331 331 331 331 331 331 330 328 328 328 327 326 325 325 325 324 323 323 322 320 321 322 323 324 324 324 323 324 323 323 323 323 324 324 322 324 326 328 329 329 328 326 326 326 326 325 325 325 324
336 336 334 329 332 336 336 337 337 337 337 335 333 332 331 331 331 331 331 331 332 332 331 331 332 332 332 331 331 330 329 330 329 329 330 330 330 330 331 331 331 331 330 329 327 327 326 325 325 325 325 324 323 322 321 320 320 321 323 325 325 325 324 324 324 323 323 322 323 324 322 322 324 328 329 329 330 328 326 326 326 326 325 326 325
335 336 332 330 334 337 336 337 337 337 336 334 332 330 330 329 330 330 330 332 332 332 331 330 330 330 329 328 329 329 328 328 328 328 328 328 329 329 330 330 330 331 330 329 327 326 326 325 325 324 323 323 322 321 321 320 319 320 322 325 325 325 324 325 324 323 323 323 324 324 322 320 321 325 329 329 330 329 328 328 328 327 327 326 327
335 335 332 332 335 336 337 337 336 337 335 333 330 329 328 328 330 331 330 330 331 331 330 327 327 327 327 326 327 327 327 328 327 327 327 327 328 328 328 329 329 329 329 328 327 326 325 325 324 322 321 321 321 320 319 319 319 319 320 322 324 325 325 325 325 323 323 324 324 324 322 320 319 322 328 328 329 330 329 329 329 328 328 327 328
335 335 334 333 334 335 336 336 336 336 333 331 330 329 329 329 331 331 329 328 328 330 330 328 326 326 325 325 326 325 327 328 327 328 328 327 327 327 327 328 328 328 328 327 327 325 324 322 320 320 320 319 319 319 319 319 319 319 318 320 322 325 325 325 324 324 323 324 324 324 321 320 319 320 325 328 329 329 329 329 329 328 328 327 327
335 336 336 334 334 335 336 336 336 335 332 331 330 329 330 329 330 330 328 326 326 328 330 330 328 326 323 323 323 323 325 327 327 327 328 328 327 327 327 327 327 326 326 326 324 322 321 319 317 318 318 318 318 318 319 319 319 318 318 319 322 323 323 324 324 324 323 322 324 324 321 320 320 319 323 327 328 328 328 328 328 327 327 327 327
334 335 336 334 335 336 335 336 335 333 332 331 331 330 329 328 329 329 328 325 326 328 329 331 330 327 325 323 320 321 325 327 326 325 325 326 326 326 326 326 326 324 323 322 320 318 317 317 317 317 318 318 318 318 318 318 318 318 319 320 322 322 322 323 323 323 322 321 323 323 321 321 320 320 323 326 327 328 328 327 327 326 326 326 326
332 333 334 334 336 336 335 335 334 333 332 332 331 329 328 328 328 328 328 326 327 328 328 330 330 328 325 323 320 320 324 326 325 324 325 325 324 324 324 323 323 321 319 317 317 317 317 317 318 318 318 318 318 317 317 317 318 319 321 322 322 323 323 323 323 322 322 322 322 322 322 322 323 323 325 326 326 327 327 326 326 326 326 326 326
331 332 332 333 335 335 335 335 335 333 332 332 330 329 328 327 327 326 327 326 326 328 328 329 330 327 325 324 321 319 320 321 320 320 320 321 319 320 320 321 320 319 318 316 317 318 318 318 318 318 318 318 318 317 317 319 321 321 322 323 323 323 323 323 323 322 323 323 322 322 322 323 323 324 325 326 326 327 327 326 325 326 326 326 326
331 331 331 331 333 334 335 335 335 334 333 332 330 329 329 328 327 326 326 326 325 327 328 328 328 327 325 325 322 319 319 318 317 316 315 316 317 318 319 319 319 318 318 318 318 318 318 317 317 317 317 318 321 321 321 322 323 323 323 323 323 323 323 322 323 322 323 323 323 323 323 322 322 323 325 325 326 327 326 325 324 325 326 326 326
330 330 330 330 331 332 334 335 335 335 333 332 331 329 329 328 328 327 324 324 325 325 328 328 327 326 324 325 325 324 323 322 319 317 315 315 316 317 317 317 318 318 318 318 317 317 316 316 316 315 317 321 323 323 323 324 323 323 323 323 323 323 322 322 322 322 323 323 323 323 323 322 321 323 324 325 326 326 325 325 325 326 326 326 326
330 330 330 330 331 331 332 333 334 335 334 333 332 330 329 328 327 326 324 324 324 324 326 326 326 325 323 326 327 326 326 324 320 318 316 315 316 316 317 318 318 318 318 317 316 316 315 315 315 316 319 322 323 322 324 324 324 323 323 323 323 322 322 322 322 322 323 323 323 324 323 321 321 322 324 325 325 324 324 324 324 325 325 325 325
330 330 329 329 330 331 330 331 332 334 334 333 332 329 328 328 327 326 323 323 323 323 325 325 326 324 323 326 326 326 326 325 321 318 317 316 316 316 316 316 317 317 316 316 315 315 315 315 317 321 322 323 323 323 324 325 324 323 323 323 323 322 322 322 322 322 323 324 324 324 323 321 320 322 323 324 324 324 323 323 324 324 324 325 325
331 330 329 329 329 330 329 330 330 331 333 332 330 328 327 328 327 327 323 321 320 324 326 324 326 325 324 326 326 325 325 325 321 318 320 318 316 317 317 317 316 316 315 316 317 316 318 319 321 324 324 324 325 324 325 325 324 324 323 323 322 322 322 322 323 324 324 324 324 324 322 320 319 321 323 323 323 322 322 323 322 323 323 323 323
331 330 330 330 329 330 329 329 329 330 331 329 328 327 327 327 327 327 325 323 321 324 326 324 326 326 323 325 326 325 325 325 320 320 324 322 320 321 321 319 318 317 317 319 319 318 322 324 324 325 325 325 326 325 325 325 325 325 324 323 322 322 323 323 323 324 324 324 324 323 321 319 319 319 321 322 322 321 321 321 320 320 322 320 321
331 331 330 330 330 330 329 329 329 329 330 327 326 327 327 327 327 327 326 326 324 325 326 324 326 325 323 326 326 323 324 325 322 323 326 324 323 325 323 321 321 321 320 322 321 321 324 325 325 325 326 326 326 326 326 326 325 325 324 323 322 322 323 323 324 324 324 324 324 323 320 318 318 317 317 318 319 318 318 318 318 319 320 319 320
331 331 331 330 330 330 329 329 329 328 329 326 326 327 327 328 327 327 327 327 325 325 325 325 326 324 323 325 325 322 324 326 323 323 323 323 324 325 323 321 324 323 322 324 323 324 326 325 326 326 326 326 325 326 326 325 325 325 324 322 322 323 323 323 324 323 323 324 323 323 320 318 317 314 312 312 313 313 313 315 317 317 319 319 319
331 330 331 330 330 330 329 329 329 328 328 326 327 327 326 327 328 325 325 327 325 324 324 325 325 323 323 324 324 323 325 324 323 321 319 323 325 323 324 323 324 324 321 324 324 325 326 325 326 325 325 326 325 325 325 325 324 324 323 322 322 323 323 323 324 323 323 323 323 322 320 319 316 307 303 303 302 303 305 308 312 317 319 319 319
332 331 331 330 330 330 329 329 328 328 328 327 328 328 325 327 329 324 323 326 325 323 324 325 324 323 322 323 324 324 324 324 324 323 321 323 323 321 324 324 324 325 323 325 326 325 326 325 326 325 325 325 325 325 324 324 323 323 323 322 323 323 323 323 324 323 323 323 322 321 320 320 316 303 297 297 296 297 297 299 307 316 319 318 319
332 332 331 331 330 330 330 329 328 328 328 327 327 328 327 327 328 324 320 323 324 324 326 324 323 323 322 321 324 325 324 325 324 324 324 323 320 318 324 325 324 326 325 326 326 325 326 326 326 325 325 324 324 324 324 323 323 323 323 323 323 323 324 323 323 323 322 321 321 321 319 320 315 306 302 297 295 296 295 296 302 311 317 317 318
333 333 332 331 330 330 329 329 328 328 328 328 327 328 327 326 327 321 317 318 320 325 327 323 323 325 323 319 322 327 325 326 325 324 325 324 322 322 325 326 325 326 326 325 326 325 326 325 325 325 325 324 323 323 323 322 323 323 322 323 323 323 324 323 323 322 320 320 320 320 319 317 312 308 308 300 295 296 295 296 297 303 311 314 317
334 334 333 332 331 330 329 329 329 328 327 328 328 328 327 327 326 320 318 317 315 324 327 324 325 326 325 319 319 326 327 327 327 325 326 326 325 325 327 326 326 326 326 326 325 325 325 325 325 325 325 324 323 323 323 323 323 323 323 323 323 323 324 324 323 320 320 320 319 319 317 312 309 308 309 302 296 295 295 295 295 298 305 310 313
335 335 334 333 332 330 329 328 329 329 327 328 328 327 327 327 326 322 322 319 313 319 323 324 327 327 327 322 316 322 327 328 327 326 326 327 327 326 326 326 326 326 326 325 325 325 325 325 325 324 324 324 323 323 322 322 323 323 324 323 323 324 323 323 321 319 320 320 318 316 308 304 306 308 308 303 296 295 295 294 294 295 298 301 305
335 335 335 334 333 332 330 329 328 329 327 327 328 327 327 328 327 324 325 323 315 315 318 322 327 327 327 323 316 319 325 327 328 326 326 327 327 326 326 326 326 326 325 325 325 325 325 325 325 324 323 323 323 323 322 323 323 323 323 323 324 323 322 322 320 319 320 318 315 310 301 298 302 304 305 303 298 294 294 294 294 294 294 294 297
335 335 335 334 333 333 332 330 328 329 327 326 328 328 327 327 326 325 325 324 318 316 316 319 324 326 326 323 318 319 323 326 328 328 327 327 327 327 326 326 326 326 325 325 325 324 324 325 325 324 323 323 323 323 324 324 323 323 323 323 323 322 322 321 319 319 318 313 312 309 302 297 297 299 300 300 299 297 295 294 294 294 294 294 294
335 335 334 334 334 333 332 331 329 329 328 325 327 328 327 326 325 324 324 322 319 318 316 318 322 324 326 325 322 320 322 325 328 328 328 327 327 327 327 327 326 326 325 325 325 324 324 325 324 324 324 324 324 324 324 324 323 323 322 323 322 321 322 320 319 318 311 305 307 306 303 297 295 298 297 297 299 298 296 295 294 294 294 294 294
334 334 334 334 334 333 332 332 331 329 329 326 326 327 327 326 325 324 323 321 319 318 318 320 322 323 325 325 325 324 322 324 327 328 328 328 327 327 327 326 327 326 325 325 325 324 325 324 325 325 325 324 324 324 323 322 322 322 322 322 322 322 322 318 318 316 307 304 302 300 299 296 295 297 296 295 296 296 296 295 294 294 294 294 294
334 334 334 334 334 334 333 333 332 330 330 328 326 327 328 327 326 325 324 323 321 320 320 323 324 324 324 325 326 327 325 325 327 328 327 328 328 328 327 327 327 327 326 325 324 324 325 324 324 325 326 325 324 323 322 320 322 322 322 322 321 322 321 318 318 314 307 306 301 295 296 295 295 295 295 295 294 294 294 294 293 293 293 294 294
333 333 333 333 333 334 334 333 332 331 331 330 329 327 328 328 327 326 325 325 324 323 324 327 328 326 325 325 327 329 328 327 328 328 328 327 327 328 327 327 327 327 326 326 324 324 325 325 324 325 326 325 324 324 322 320 321 322 322 321 321 321 320 317 317 314 309 305 298 295 295 295 295 295 295 294 294 294 293 293 293 293 293 294 295
333 333 333 333 333 333 334 333 333 332 331 331 331 329 328 328 328 327 327 327 327 327 328 329 330 329 327 327 328 329 329 328 328 329 328 328 327 328 327 327 327 327 327 326 325 325 326 326 325 326 326 325 325 324 322 321 322 322 321 320 320 319 319 318 316 316 312 303 296 295 295 295 295 296 297 295 293 293 293 293 293 293 293 293 295
332 332 332 333 333 333 334 334 333 333 332 332 332 331 330 329 328 328 328 328 328 329 330 330 330 330 329 329 329 329 329 329 329 329 329 328 327 327 327 327 327 327 326 326 326 326 327 326 326 326 324 323 324 325 323 322 321 321 320 319 319 318 318 317 315 315 310 301 295 295 295 295 295 296 298 297 294 293 293 293 293 293 292 293 294
332 332 332 332 332 333 333 333 334 333 332 332 332 332 331 330 330 329 329 330 330 330 331 331 331 331 330 330 330 330 329 329 329 329 329 329 328 327 327 327 327 327 326 326 326 327 327 326 326 325 324 323 323 324 324 322 320 320 319 320 319 318 318 316 314 314 309 300 296 294 295 295 295 295 296 297 296 293 293 293 292 292 292 294 295
332 332 332 332 332 332 332 332 333 333 332 332 332 332 332 331 331 331 331 331 331 331 331 331 331 331 330 330 330 330 330 329 329 329 329 328 328 328 327 327 327 327 327 327 327 326 326 327 325 323 323 324 324 324 323 321 320 318 320 321 318 318 322 318 312 311 308 303 299 294 294 295 294 294 294 296 296 294 292 292 292 292 293 294 295
332 332 332 332 332 332 332 332 332 333 332 332 332 331 332 332 332 333 332 332 332 332 332 332 332 331 331 330 330 331 330 330 330 330 329 328 328 328 328 327 327 327 327 327 327 327 327 327 325 323 322 323 324 323 322 321 319 317 319 321 316 317 321 316 311 309 306 306 303 296 294 294 294 294 293 294 296 294 292 292 292 292 293 293 293
332 332 332 332 332 331 332 332 332 332 332 332 332 331 331 332 332 333 333 333 332 332 332 332 332 332 332 331 331 331 331 331 331 330 330 329 328 328 328 328 327 327 327 327 327 327 327 327 325 324 322 323 324 323 322 321 319 317 317 318 318 317 315 311 311 310 306 306 304 300 298 294 293 294 293 294 294 293 292 292 291 292 293 293 292
331 332 332 331 331 332 331 332 332 332 332 332 331 331 331 331 332 332 333 333 333 333 333 333 333 333 333 332 332 331 331 331 331 331 330 330 329 328 328 329 328 328 328 327 327 327 327 327 325 324 323 324 324 322 322 320 318 317 316 316 315 314 312 311 311 309 306 306 304 302 301 296 294 294 293 293 293 293 292 292 291 291 293 294 292
331 331 331 331 331 331 332 331 332 332 331 332 332 331 331 331 332 332 332 333 333 333 333 333 333 333 333 332 332 332 331 331 331 331 331 330 329 329 328 329 329 328 328 328 328 327 327 326 325 324 324 324 323 322 321 319 318 315 314 314 311 307 308 309 307 305 306 307 305 303 302 298 297 296 294 293 293 293 292 292 292 291 292 293 292
331 330 330 330 331 331 332 331 331 332 331 331 332 332 331 331 332 332 332 332 332 333 333 333 333 333 333 333 332 332 332 332 332 331 331 330 329 329 328 328 329 328 328 328 328 327 326 325 324 324 325 324 323 322 320 319 317 314 312 312 309 303 301 301 299 300 304 306 306 303 300 299 299 299 297 293 292 292 293 292 292 292 292 292 292
330 330 330 329 330 330 331 331 331 332 332 332 332 332 331 331 332 332 332 332 332 332 333 333 333 333 333 333 333 332 332 332 332 331 331 330 329 329 329 329 329 329 328 328 327 327 325 324 323 325 325 323 322 321 319 318 317 316 312 309 306 302 299 297 295 298 302 303 304 301 299 300 299 298 297 295 294 293 293 293 292 292 292 292 292
330 329 330 329 329 330 330 331 331 332 332 332 332 332 332 331 331 331 332 331 331 332 332 332 332 332 332 332 332 332 331 331 331 331 331 330 329 329 329 329 329 328 328 327 326 325 324 323 323 325 324 322 320 319 318 317 316 316 312 306 302 299 298 297 294 296 299 300 303 302 299 299 298 296 297 297 296 294 293 293 293 292 291 292 292
Wind_Speed
10 11 12 11 12 11 11 12 12 13 13 13 14 14 14 14 14 14 14 16 17 17 16 15 14 13 12 13 14 15 15 16 16 17 18 18 18 18 18 19 19 19 19 20 20 19 20 20 20 19 18 18 17 18 18 18 18 18 18 19 20 20 20 20 20 19 18 20 20 19 21 21 20 20 19 20 21 19 20 20 20 21 21 20 19
11 11 11 12 12 11 11 11 11 12 13 13 14 14 14 14 14 13 14 16 16 15 16 16 15 15 14 12 12 14 14 14 15 15 16 17 16 17 18 18 18 18 18 19 19 19 20 19 19 18 17 18 19 19 19 18 18 17 17 17 18 19 19 20 19 18 15 16 20 22 22 22 20 20 19 20 21 21 21 21 20 20 20 19 19
14 13 12 12 12 11 11 11 10 11 12 13 13 14 14 14 14 13 15 15 14 14 15 15 16 15 15 14 13 14 13 14 15 15 15 15 15 18 18 17 17 18 19 19 19 19 19 18 17 17 18 19 19 19 18 18 18 17 17 17 17 18 18 19 18 19 17 15 19 23 23 23 21 20 20 21 21 22 22 21 20 19 18 18 19
15 14 13 13 12 11 10 10 10 11 12 12 13 14 15 15 15 15 15 14 14 14 14 14 15 15 16 15 15 15 14 15 15 15 15 15 16 17 17 17 18 19 19 19 19 19 19 18 17 18 19 19 19 19 19 19 18 18 18 18 18 19 19 20 18 18 19 16 17 21 21 21 22 20 19 20 20 21 21 21 20 19 17 17 18
15 14 14 12 12 10 9 10 9 11 11 11 13 14 15 15 16 16 14 14 14 14 14 14 15 15 15 15 15 15 15 15 15 15 15 15 16 16 16 15 16 17 17 18 18 18 18 18 18 18 19 19 20 20 20 20 20 20 21 22 21 21 21 19 17 17 18 17 16 17 18 20 21 21 19 19 20 20 20 20 20 19 18 17 16
15 14 13 11 11 10 9 10 9 10 10 12 13 14 15 15 15 15 15 15 14 14 14 15 15 15 15 16 16 15 15 14 15 15 15 14 16 16 15 15 15 15 16 16 16 18 18 18 17 17 18 19 20 20 21 21 21 22 23 23 23 22 21 19 17 16 17 18 17 16 18 20 19 19 19 19 19 19 18 18 18 18 18 17 15
16 15 12 10 10 9 9 10 10 9 11 12 13 13 14 15 16 15 14 14 13 13 14 15 15 15 15 16 15 15 14 14 15 15 15 15 15 15 14 15 15 14 14 15 15 16 17 16 17 17 18 19 19 20 20 21 22 23 23 23 22 21 20 18 17 15 15 17 18 17 18 18 17 16 17 18 18 18 17 17 17 17 17 17 14
16 17 14 12 9 9 9 10 11 10 12 13 12 12 12 14 15 15 14 13 12 12 13 15 14 14 15 14 15 14 14 14 14 14 14 14 14 14 14 15 14 13 14 14 16 16 15 15 16 17 17 18 19 20 20 20 21 22 22 22 22 21 19 17 18 17 16 17 17 17 17 15 15 14 13 14 14 16 16 17 17 16 16 18 15
15 16 15 11 9 10 10 12 12 12 13 13 13 12 12 13 13 14 14 12 11 12 12 13 13 13 14 14 14 14 13 13 13 13 13 13 13 13 13 14 13 13 14 14 15 14 14 14 15 16 17 17 18 18 19 20 20 21 21 20 20 19 19 17 16 17 16 16 15 15 15 14 15 14 12 11 10 14 16 17 17 16 17 18 17
13 14 13 9 10 12 12 13 14 14 14 14 14 12 11 11 12 13 13 11 11 12 12 13 13 13 13 13 14 14 13 13 13 13 13 13 12 11 11 13 13 13 13 13 14 13 13 14 14 14 15 16 17 17 18 19 19 20 19 19 19 18 18 17 15 15 14 14 13 13 14 13 14 13 12 11 9 13 15 15 15 15 17 18 16
12 13 11 8 11 14 14 14 16 16 14 14 14 13 11 10 12 13 13 11 11 12 12 13 12 13 13 13 13 12 12 12 12 12 12 12 12 11 11 11 13 13 12 12 12 12 12 13 13 13 14 15 16 16 17 18 18 18 18 18 18 18 17 15 14 13 12 13 12 10 11 10 11 12 13 11 9 12 14 13 14 13 15 15 15
12 12 9 9 13 14 14 15 16 15 14 14 13 13 11 11 13 13 12 11 11 12 12 12 12 13 13 13 13 12 12 13 12 12 11 12 11 11 11 10 12 13 13 12 12 12 11 12 12 12 12 13 14 15 16 16 16 15 15 16 16 16 15 15 13 12 11 12 12 10 10 8 9 12 13 12 10 10 12 13 12 12 13 14 14
12 11 8 11 15 13 14 16 16 14 13 13 12 12 11 11 13 13 12 11 10 11 12 12 13 13 13 12 12 12 12 13 12 12 11 11 10 10 10 10 11 12 12 12 11 11 11 11 11 11 11 12 13 14 14 15 16 14 13 13 14 13 13 14 12 11 10 11 12 9 11 11 9 11 12 12 11 9 10 11 11 12 12 12 12
11 10 10 12 14 13 14 16 15 14 13 12 12 11 10 12 13 12 12 11 9 11 11 11 12 11 11 10 11 12 11 12 11 11 10 10 10 10 10 9 10 11 11 11 10 10 10 10 9 10 10 11 12 12 13 13 15 15 13 12 13 13 12 14 12 10 9 11 12 9 11 13 11 11 13 13 12 11 9 10 11 12 12 11 12
12 12 11 12 12 13 14 15 15 13 12 12 11 11 12 13 14 12 11 11 9 10 9 8 8 9 9 8 9 11 11 11 11 10 10 9 9 9 9 9 9 10 10 10 9 9 9 9 8 9 10 11 11 11 12 12 13 14 14 12 12 12 12 13 12 11 10 11 10 9 12 13 13 11 12 13 13 13 12 11 12 12 12 12 12
13 11 11 12 12 12 14 15 14 13 12 12 11 13 13 13 13 12 11 10 8 8 8 7 8 8 9 9 10 11 10 11 11 11 11 10 9 9 8 8 9 9 9 9 8 8 8 8 9 10 10 10 10 11 11 12 13 13 13 13 12 12 12 12 11 10 10 11 7 8 13 13 14 12 11 14 13 13 13 13 13 13 13 13 13
12 11 12 12 12 12 13 14 14 13 12 11 11 12 11 11 12 12 10 10 9 8 8 9 9 9 10 10 10 11 10 10 11 11 11 10 10 9 9 9 8 8 8 8 8 8 8 9 10 10 10 10 10 11 11 12 12 12 12 13 13 12 11 11 10 9 9 10 7 8 13 13 14 14 12 14 14 14 14 14 14 13 14 14 14
13 13 12 10 11 12 13 14 13 13 12 11 11 10 9 10 11 11 10 9 9 9 9 9 10 10 9 8 8 10 9 8 10 9 9 10 10 9 9 9 8 8 8 8 8 9 10 10 10 10 10 10 11 11 11 11 12 12 13 12 13 13 12 12 10 10 9 9 9 10 13 14 14 14 13 14 14 15 15 14 14 14 14 15 15
14 14 12 11 12 11 13 14 13 13 12 11 11 10 9 9 10 10 9 8 8 8 8 9 10 10 8 7 7 9 8 7 8 9 9 9 9 9 9 9 9 9 9 10 10 10 11 11 10 10 10 10 10 11 11 12 12 13 13 12 12 13 12 12 10 9 9 8 10 11 13 15 14 13 12 12 13 13 14 13 13 14 14 14 14
14 13 13 14 14 11 12 14 13 12 12 12 12 11 10 8 9 8 9 9 8 8 8 10 9 8 7 6 7 8 8 7 8 8 8 8 8 9 10 10 10 10 10 11 11 11 10 9 9 9 8 8 9 10 11 12 14 13 13 12 11 12 11 10 9 9 9 9 10 11 13 15 14 13 12 12 12 12 13 13 12 13 14 14 14
13 13 14 14 14 11 11 14 14 13 12 12 12 12 10 8 9 8 9 10 9 8 8 9 8 7 6 5 6 7 6 6 7 7 8 8 9 10 10 10 10 11 11 10 10 10 8 8 7 7 8 8 9 9 10 11 13 13 12 12 11 11 11 10 10 9 8 10 11 11 14 16 14 12 12 12 12 12 12 12 12 13 13 13 14
14 14 14 14 14 13 12 14 13 15 15 13 12 13 11 9 9 9 9 10 10 9 9 9 8 7 6 6 6 5 4 4 5 7 7 9 10 9 9 9 9 9 9 9 9 8 7 6 6 6 7 8 8 7 9 10 11 13 11 11 11 11 10 9 9 8 9 11 12 13 16 17 14 12 11 12 12 12 12 12 12 13 13 13 13
15 14 15 15 15 15 15 14 13 16 17 13 11 12 12 8 8 9 9 11 11 10 9 8 7 7 8 8 7 5 5 5 5 7 7 8 9 8 8 8 7 7 7 7 6 6 5 5 6 7 7 8 8 7 8 9 11 12 11 10 10 10 9 9 9 8 8 10 11 13 16 17 15 12 11 11 12 12 12 12 12 13 13 13 13
17 16 15 15 15 15 15 15 15 17 16 13 9 9 11 9 8 8 9 10 11 11 9 8 7 7 9 9 6 8 9 7 6 6 6 6 7 7 6 6 5 5 5 5 5 4 3 4 6 7 7 8 7 5 5 7 9 10 9 9 8 9 9 8 9 9 8 9 11 13 16 16 14 12 12 12 12 12 12 12 12 13 13 13 14
18 16 16 15 15 15 15 16 16 16 15 13 10 9 11 12 10 9 9 10 11 12 10 10 9 9 10 9 8 12 11 8 8 7 5 5 6 5 5 5 4 4 3 3 3 3 3 5 7 7 6 6 5 5 5 7 8 8 8 8 7 8 9 8 8 10 9 10 11 13 15 14 14 12 12 12 12 12 12 12 12 12 13 12 14
17 17 17 15 15 15 15 15 17 17 15 14 13 12 13 13 12 11 10 11 12 13 12 12 12 12 11 10 11 13 11 8 9 8 5 5 4 3 3 3 3 3 2 2 1 2 3 5 6 5 4 4 4 6 7 7 8 9 8 7 8 8 9 9 8 9 10 10 11 13 14 13 13 13 12 12 12 11 12 12 11 12 13 13 14
19 17 16 16 16 16 15 16 17 18 16 14 14 15 15 14 14 13 12 12 12 12 12 13 13 14 13 11 12 13 11 8 9 9 7 7 5 3 3 3 2 2 2 2 1 3 4 3 3 4 4 4 5 7 6 6 8 9 7 6 8 7 8 8 7 9 9 9 10 12 13 13 13 13 12 12 11 11 11 11 12 12 12 14 15
19 17 16 16 17 17 16 16 18 19 17 15 14 15 16 13 13 15 14 13 13 13 13 12 13 14 14 12 11 11 10 9 10 10 10 8 7 6 5 5 5 3 4 2 1 4 3 2 1 4 4 4 6 6 6 6 7 7 5 6 7 6 8 7 7 8 8 8 9 11 13 13 13 14 13 12 11 11 11 12 12 13 14 15 16
19 17 16 16 16 17 18 17 18 19 18 16 14 14 15 13 13 16 16 14 13 13 12 12 13 14 15 13 11 10 10 10 10 9 10 9 8 9 7 5 6 4 3 2 1 3 1 1 2 3 3 4 6 6 7 7 6 4 4 7 7 6 7 6 6 7 6 7 8 10 12 13 14 15 14 13 12 13 13 13 14 15 16 16 17
18 17 17 16 16 18 19 19 18 18 18 17 16 13 15 15 14 17 17 15 14 12 12 13 13 13 14 14 13 11 10 10 9 9 9 9 10 10 8 6 6 3 2 3 0 0 1 2 3 4 4 6 6 6 7 6 5 3 4 7 6 6 6 5 6 6 4 5 7 9 10 12 14 14 15 15 14 14 14 14 15 16 17 17 18
18 18 18 17 17 18 19 20 19 19 18 18 17 15 15 16 16 17 17 17 17 14 13 14 12 12 13 15 16 12 11 10 10 10 9 10 9 9 9 6 5 4 2 3 3 3 3 3 4 5 6 6 5 5 5 5 3 3 5 6 5 5 5 5 4 4 5 6 6 8 9 11 12 13 16 16 15 14 15 15 15 17 17 18 18
20 20 19 18 19 20 19 20 20 20 20 18 18 16 15 17 16 17 18 18 18 15 14 14 12 12 11 14 17 15 12 11 10 10 9 9 8 7 8 5 4 4 4 4 5 5 5 5 5 6 5 4 3 3 3 3 2 3 4 4 3 4 3 2 2 4 6 6 5 6 7 9 9 11 14 15 15 15 15 15 15 17 18 19 19
21 20 20 20 20 21 20 20 20 21 21 19 18 17 16 17 16 17 17 18 19 17 15 15 13 13 12 13 17 16 14 12 11 12 10 9 8 7 8 6 5 5 6 5 5 4 4 4 4 5 4 4 4 3 2 2 2 3 3 3 3 3 2 1 3 4 6 6 6 6 4 5 7 10 11 13 14 14 14 15 15 17 18 19 19
21 20 21 21 20 20 21 21 20 21 22 19 18 18 17 17 17 17 16 17 20 19 17 17 14 14 15 15 17 16 15 13 11 12 12 10 9 9 9 7 6 7 7 5 4 3 4 4 4 4 2 4 4 2 2 1 1 2 3 3 3 3 2 1 4 6 7 6 6 4 4 6 8 9 9 10 12 13 14 15 15 17 18 18 19
22 22 22 22 21 19 21 22 22 22 23 21 19 19 19 18 18 17 17 17 19 20 18 17 15 15 16 15 17 17 16 14 11 11 12 12 10 9 9 8 7 8 7 5 5 5 5 5 4 3 2 3 3 1 1 2 1 1 2 4 3 4 3 2 5 7 7 6 6 5 7 9 9 8 7 7 9 12 14 15 15 16 17 17 18
25 23 22 23 23 21 20 21 23 24 24 23 21 20 20 19 19 18 18 19 18 19 19 17 16 16 15 15 17 18 17 15 13 12 11 12 11 10 8 8 9 9 7 6 6 6 5 6 4 3 3 2 2 0 1 2 2 2 2 2 2 3 3 2 5 7 6 6 7 7 8 9 8 8 7 6 8 11 13 14 14 14 15 15 16
27 25 23 24 26 24 22 21 23 24 25 25 23 21 20 20 19 18 19 19 18 18 18 17 16 16 16 15 16 18 18 16 16 15 13 12 11 11 9 9 10 10 8 6 6 5 5 5 4 3 3 3 2 2 3 2 1 2 1 0 1 2 2 2 6 5 5 7 8 6 6 7 8 8 8 7 8 10 11 12 12 12 13 14 15
28 27 25 25 26 27 27 25 22 23 24 25 25 23 21 20 19 18 19 19 19 18 18 17 16 16 17 17 16 17 18 17 17 17 16 13 12 12 11 10 10 9 8 8 7 6 7 7 5 4 4 3 4 4 3 3 2 2 2 1 2 2 3 5 7 5 6 9 7 6 5 6 7 8 8 8 9 10 10 10 11 12 13 13 14
29 29 27 25 26 27 29 29 26 24 23 23 25 25 22 21 20 19 20 20 19 19 18 17 17 17 18 18 17 16 17 18 17 17 16 15 13 13 13 11 10 9 9 9 8 8 9 9 8 6 5 5 6 5 3 2 4 3 3 3 4 3 5 7 6 6 8 7 6 6 6 6 7 8 8 9 9 10 10 10 12 12 13 13 13
29 30 29 27 27 27 28 31 31 27 25 23 23 25 24 22 22 21 21 21 20 19 20 18 18 19 18 18 18 17 16 17 17 16 15 15 14 14 13 13 12 11 11 10 10 10 11 10 8 7 6 6 6 5 2 2 3 4 3 4 4 4 7 8 6 7 7 6 5 7 6 6 7 9 9 8 9 10 10 11 12 13 13 13 12
28 29 31 31 30 29 29 31 33 31 29 27 26 27 27 25 24 24 24 23 22 21 21 21 20 19 18 18 19 19 17 17 18 17 16 15 15 15 14 14 14 13 13 12 11 11 12 9 7 8 8 7 5 4 2 3 5 4 4 7 4 6 9 7 6 7 7 5 6 8 7 6 7 9 8 7 9 9 9 11 12 13 13 13 13
30 31 32 33 32 31 31 30 32 32 32 31 29 29 30 29 28 28 26 25 24 24 23 24 23 21 20 19 20 21 21 20 19 19 18 17 16 16 15 15 15 15 14 13 12 12 12 10 9 10 10 8 5 5 5 5 4 2 5 9 6 6 8 7 7 7 7 6 7 9 8 7 7 8 7 6 8 8 9 10 11 13 14 14 14
32 33 32 33 32 32 33 31 31 32 32 32 31 31 30 30 28 27 27 26 25 26 25 25 26 25 23 22 21 23 23 23 22 22 20 18 17 17 16 15 16 16 15 14 14 14 13 11 11 11 11 8 6 7 8 6 4 2 2 5 4 5 4 5 8 7 7 6 7 9 8 6 7 7 6 6 7 8 10 11 11 12 13 13 12
31 32 33 33 34 34 35 34 32 32 32 32 31 30 29 27 26 24 26 26 25 26 26 25 26 27 26 25 24 24 24 24 24 24 22 21 20 18 17 16 17 17 16 16 16 15 13 13 12 12 11 9 9 10 10 8 6 4 2 2 4 5 2 5 10 9 8 7 6 9 8 6 6 6 6 7 7 7 10 11 11 11 11 11 11
31 33 35 36 36 37 37 35 34 32 32 33 31 29 27 26 25 22 22 24 23 24 25 26 26 27 28 28 27 26 26 25 25 25 24 23 22 21 19 18 18 18 17 18 18 16 15 15 14 14 13 12 12 13 12 10 8 9 7 2 4 3 2 8 12 8 10 10 5 6 8 6 6 6 5 6 6 6 9 11 10 10 10 10 12
32 34 36 37 37 37 37 36 35 34 33 33 32 30 29 28 28 26 25 26 25 26 28 29 29 29 28 27 27 28 28 27 26 26 25 24 24 24 22 20 20 20 19 19 19 18 17 17 17 15 13 12 12 12 12 10 8 11 12 6 4 2 4 11 9 4 8 10 8 5 5 5 7 6 4 4 5 6 7 11 10 10 9 9 13
34 35 36 38 37 35 37 38 37 36 35 34 33 33 33 31 32 32 31 30 29 28 30 30 30 30 29 28 28 29 29 29 28 28 27 26 26 25 25 24 23 22 21 21 20 19 18 18 18 16 14 14 14 12 11 10 8 10 12 10 6 4 7 9 6 5 5 6 8 8 3 3 5 6 4 2 2 5 5 9 11 10 9 9 13
36 36 36 38 38 37 38 39 39 38 37 36 36 37 37 35 35 34 33 32 31 30 29 29 29 29 29 29 30 30 29 29 30 30 29 28 27 27 27 26 25 23 22 22 21 20 19 19 19 16 16 17 18 15 11 11 11 10 11 11 8 7 8 7 8 8 5 4 6 7 5 0 0 3 4 3 1 3 4 7 11 10 9 9 12
37 37 39 39 38 38 37 38 39 39 38 37 37 39 39 37 36 36 34 33 32 30 28 28 28 28 29 30 31 31 31 30 31 31 30 29 28 28 28 28 27 25 24 23 23 22 21 20 19 18 20 21 19 17 14 13 13 11 12 12 9 8 8 7 8 8 5 5 4 6 7 2 3 4 1 2 3 1 4 5 10 10 9 10 13
38 38 38 36 36 36 35 36 38 38 38 38 38 39 40 38 37 36 36 34 32 30 28 28 28 28 29 30 31 32 32 31 32 32 31 30 29 29 29 30 29 28 26 24 24 24 23 21 20 21 23 22 18 16 15 14 13 14 15 16 14 12 9 6 7 8 6 5 3 4 6 5 5 5 4 2 3 5 2 3 9 11 11 11 13
35 34 34 34 35 35 36 37 38 37 37 38 39 39 40 40 39 38 37 35 33 31 30 30 30 30 31 31 31 32 33 33 33 33 33 33 32 31 31 31 30 29 27 25 24 24 24 22 22 23 23 20 17 15 15 14 14 15 16 17 18 15 11 8 10 11 7 5 4 3 5 5 4 4 3 3 2 5 1 1 6 11 12 12 13
Wind_Direction
122 133 135 127 118 114 111 110 109 112 112 108 104 99 94 89 87 88 88 82 79 83 83 82 81 80 81 79 80 81 77 74 70 67 68 69 70 70 71 72 72 73 73 72 73 73 73 73 72 72 72 73 73 71 71 72 73 72 73 73 74 72 69 68 67 63 52 49 53 53 55 55 53 50 46 48 51 55 59 53 48 46 48 47 45
135 142 138 130 123 118 112 110 110 110 110 107 102 99 94 90 90 91 89 85 85 86 84 82 81 80 81 83 83 85 80 73 69 65 66 68 72 73 72 74 77 77 76 74 74 74 73 73 73 74 76 76 73 71 70 70 69 70 71 71 72 71 71 70 68 63 49 48 53 49 55 57 55 54 50 50 51 52 53 51 49 47 47 45 45
136 144 140 134 124 115 113 111 111 109 108 107 103 99 94 91 94 91 89 89 91 87 84 85 86 84 82 83 83 86 84 76 72 70 70 71 76 77 74 75 79 79 76 76 77 76 75 75 76 78 78 75 71 70 70 69 68 67 68 69 70 70 72 72 72 64 54 57 55 47 54 58 53 54 53 52 51 49 49 48 48 48 46 43 43
134 140 141 136 125 117 114 112 111 111 110 109 105 100 93 92 98 94 93 92 90 89 90 90 87 86 85 84 82 85 84 80 79 76 77 75 76 78 77 75 75 77 75 77 79 77 77 77 78 79 76 73 71 71 70 69 68 68 68 69 71 72 73 72 69 64 62 63 55 45 51 57 54 54 54 52 50 47 45 45 45 45 44 40 40
130 134 139 135 129 128 121 116 113 115 114 111 105 100 96 94 99 100 100 94 91 94 93 93 90 89 87 86 86 87 84 84 85 81 80 79 77 77 82 83 78 77 78 79 79 78 78 77 76 76 75 73 72 71 71 70 70 71 74 75 77 76 73 71 66 62 66 62 50 46 52 59 57 53 54 51 48 47 43 42 42 40 40 38 37
130 133 139 138 137 140 131 122 119 122 119 112 106 101 98 96 98 97 98 97 95 95 93 95 93 90 89 89 90 90 90 89 88 85 82 82 80 78 82 87 85 83 84 84 79 78 78 77 76 75 75 74 72 71 71 70 73 78 81 80 78 77 72 68 63 57 65 68 60 56 58 63 60 54 53 52 48 45 42 41 40 39 37 33 35
135 136 138 141 143 147 141 133 129 128 123 115 107 103 100 98 99 95 95 97 96 95 95 97 94 91 91 91 91 91 94 95 91 88 84 82 81 81 82 84 85 88 93 91 84 79 76 78 77 75 74 72 71 71 71 71 77 83 82 78 74 72 70 69 69 60 64 71 70 65 60 59 56 55 53 51 47 42 43 42 38 39 35 31 36
138 139 140 144 144 150 151 144 136 132 127 117 110 107 104 103 106 105 102 100 97 96 94 94 94 92 92 92 92 92 95 96 94 90 87 82 80 81 81 83 84 88 94 92 86 79 73 75 78 76 74 72 71 70 70 72 79 84 81 78 73 69 68 68 71 69 67 70 71 64 58 54 48 51 50 45 43 40 46 46 39 38 34 35 39
138 139 145 151 148 156 153 145 139 134 131 123 120 114 109 109 110 112 110 106 100 96 92 93 95 93 93 95 95 96 99 100 97 93 91 86 82 83 85 87 85 83 85 85 82 77 73 74 76 76 75 73 71 70 69 71 79 84 80 78 74 72 70 65 67 67 65 66 69 64 57 53 49 50 44 37 32 33 44 46 41 40 37 37 35
132 133 143 150 153 156 148 142 138 136 134 128 126 117 114 113 108 112 112 108 101 96 94 96 101 103 101 101 99 99 102 103 101 100 98 94 89 89 92 96 93 87 84 83 81 79 77 77 76 74 74 73 71 70 69 71 79 85 83 80 77 75 74 69 66 67 64 65 67 68 63 56 53 46 37 38 30 27 40 41 36 40 37 34 32
131 137 144 146 153 151 144 141 137 137 134 132 129 123 122 113 106 111 111 108 104 100 102 106 109 113 112 106 104 103 102 104 107 108 103 99 94 89 88 96 99 96 91 87 85 83 81 78 77 75 72 72 70 69 68 70 77 85 84 82 81 77 74 70 67 65 66 66 59 53 58 62 59 41 31 43 37 29 38 36 30 33 34 30 29
132 143 148 149 150 145 144 140 138 138 133 134 133 128 125 110 107 111 111 110 112 110 113 116 109 110 109 104 107 111 108 104 107 106 101 100 97 90 87 90 96 98 97 95 92 87 82 80 78 77 74 71 68 67 67 68 72 80 83 82 81 79 75 72 65 60 62 62 56 42 40 49 52 35 26 36 34 28 33 28 25 21 24 25 21
133 139 139 147 148 141 141 140 140 139 135 136 133 129 126 118 116 114 114 116 120 115 117 116 105 104 104 102 104 106 105 101 102 100 99 104 99 94 90 88 92 93 95 96 94 89 85 82 81 79 76 71 68 66 65 65 68 72 78 76 72 75 75 73 66 56 58 56 56 48 32 24 26 25 19 25 26 28 25 17 20 10 9 17 9
132 130 137 149 147 141 141 141 141 141 140 137 132 129 126 126 124 124 126 126 122 113 115 115 109 110 108 111 105 101 102 101 103 104 107 113 109 108 104 97 95 92 91 93 95 94 88 86 85 82 78 72 68 65 65 63 64 68 74 77 73 74 71 68 60 47 54 52 50 46 30 19 14 17 15 16 15 19 18 9 14 9 4 8 1
132 132 141 154 149 144 146 145 145 146 145 136 130 127 126 129 130 137 139 134 128 119 121 120 121 123 123 130 118 107 108 113 116 113 117 122 118 118 116 106 100 97 94 96 98 100 96 92 88 82 79 73 71 67 65 64 63 64 68 75 78 78 72 65 52 43 53 50 43 32 23 19 16 15 13 12 7 8 11 9 9 9 5 5 5
137 137 140 154 154 148 149 151 151 149 145 137 133 132 134 137 140 147 144 142 145 136 135 133 131 131 134 139 132 125 122 128 130 120 118 118 119 121 118 110 107 105 100 101 104 106 101 91 87 83 80 75 73 69 66 65 63 61 60 65 72 75 69 63 50 38 44 45 37 18 16 16 16 16 11 7 4 2 6 10 8 7 3 1 9
136 138 141 152 155 151 154 156 155 153 148 142 140 142 147 148 151 155 147 148 152 151 152 143 137 137 136 137 141 145 141 141 142 136 129 124 125 124 122 120 118 120 114 113 111 104 96 85 83 81 80 77 73 70 67 64 59 57 54 57 65 66 56 56 51 31 33 38 29 13 13 11 8 11 10 4 2 1 6 11 7 5 2 359 4
138 143 148 152 153 157 160 159 158 156 152 147 148 151 153 152 156 162 157 152 151 155 159 152 146 141 132 131 144 154 152 148 151 150 143 139 136 129 129 126 123 130 125 121 115 99 93 86 84 82 81 79 74 70 65 61 56 51 47 50 57 56 46 46 48 32 30 29 17 9 5 3 0 4 6 2 359 360 5 8 5 3 1 360 358
148 149 150 152 156 163 161 159 161 161 158 156 157 155 152 152 158 165 168 166 163 158 154 152 146 140 129 124 139 153 155 149 154 157 153 154 149 143 139 131 127 131 122 114 109 97 93 89 87 86 82 79 74 68 62 58 51 44 46 50 51 49 39 35 37 30 29 17 4 359 355 356 358 2 3 359 356 358 1 0 0 0 358 358 355
153 152 153 156 161 171 164 160 166 167 165 166 164 160 156 157 161 167 174 180 180 167 151 151 149 143 136 128 137 147 151 148 152 159 160 162 155 145 136 128 126 122 114 108 104 98 95 91 88 83 77 76 71 63 57 52 42 38 47 47 43 41 29 26 31 21 13 3 353 348 352 358 359 1 3 358 355 357 359 358 357 359 358 357 355
159 158 161 163 166 174 169 164 169 168 167 173 172 167 167 171 172 170 176 184 188 180 162 159 160 152 140 136 141 139 143 149 144 147 150 148 142 135 125 121 118 113 110 107 102 98 94 87 82 74 67 67 64 56 47 42 35 32 41 44 36 30 20 19 25 12 359 353 350 348 351 357 357 358 2 0 358 359 1 0 0 360 358 359 359
165 166 168 171 171 174 172 171 172 166 166 174 177 174 173 179 182 178 178 183 188 188 178 173 170 161 150 142 134 124 141 163 153 143 140 135 133 129 124 119 115 113 109 106 100 95 91 80 70 63 64 60 53 45 34 29 26 21 25 38 30 19 16 14 13 12 7 356 350 350 350 354 356 359 4 3 0 2 2 2 4 2 1 4 360
168 172 172 175 175 174 176 177 174 170 173 176 179 177 174 181 183 183 181 181 186 187 188 188 185 181 165 148 135 150 182 205 192 155 140 138 137 132 129 124 120 116 108 104 96 88 76 66 60 56 58 55 45 37 26 8 7 17 24 35 24 11 15 14 8 10 10 354 348 350 350 354 1 8 11 8 5 5 6 7 9 8 9 9 2
168 175 176 178 179 179 179 178 174 173 175 173 174 171 171 179 177 184 183 182 186 178 188 189 188 195 169 157 164 185 198 217 211 169 153 150 143 142 137 133 129 120 114 107 94 79 62 61 61 53 44 47 42 34 27 353 356 17 22 26 19 13 13 10 11 13 7 351 349 352 351 358 10 20 20 18 16 14 16 17 17 15 14 14 9
167 173 175 180 183 185 184 179 178 177 175 170 171 168 169 177 178 189 182 179 179 167 186 185 181 204 175 167 195 196 201 220 212 177 160 158 148 147 142 149 146 130 124 111 87 60 47 45 51 51 37 39 32 12 9 350 0 10 2 2 1 13 12 8 16 14 6 354 352 353 354 5 19 27 26 25 22 21 21 18 18 18 15 14 12
167 171 171 182 187 187 188 182 183 183 183 181 181 179 175 179 184 190 181 181 180 170 193 190 185 207 182 178 211 202 196 214 205 172 159 176 168 151 152 168 153 130 115 108 70 60 59 34 34 42 24 14 5 354 358 356 1 359 359 8 5 14 14 13 19 12 5 357 355 357 1 15 22 27 30 27 23 22 20 16 20 22 17 16 19
169 172 170 181 186 187 190 186 186 186 189 190 185 187 183 184 187 185 182 188 189 181 194 193 193 201 184 193 221 203 187 202 204 182 176 186 181 174 189 181 153 151 131 134 78 81 84 55 23 10 5 2 351 347 357 358 354 354 0 19 21 21 12 16 17 9 8 356 355 0 8 19 21 24 26 25 24 22 22 24 30 30 28 28 33
169 174 173 180 187 188 190 189 192 190 190 190 188 195 188 185 194 187 182 190 193 189 190 193 199 198 188 200 211 193 183 198 208 195 183 177 178 182 191 177 163 183 162 156 97 82 70 59 356 335 353 355 344 340 342 346 353 354 343 0 18 19 12 19 14 13 18 360 356 1 8 20 22 22 22 23 26 27 32 37 40 40 41 41 42
169 175 175 177 187 191 191 190 196 194 191 188 189 202 192 182 200 195 183 187 193 191 186 190 202 197 192 194 188 183 187 198 205 199 185 177 185 182 179 172 168 194 173 149 76 83 35 324 301 299 311 330 337 336 328 334 352 345 322 353 10 18 21 26 18 24 30 6 1 2 8 18 21 24 28 30 33 36 42 47 49 49 48 48 49
174 179 179 180 186 192 194 193 196 196 194 192 189 200 195 184 203 203 188 189 187 185 188 192 202 197 191 186 175 182 191 196 197 191 187 185 194 182 171 174 173 194 154 127 200 165 273 289 286 273 277 304 320 332 332 337 356 352 344 1 10 18 25 32 24 18 26 23 13 6 10 16 19 29 35 35 39 43 47 52 58 57 54 54 54
179 181 184 185 185 189 196 197 197 197 196 197 192 195 198 192 204 204 194 196 182 179 196 194 192 189 193 188 173 176 188 198 198 189 190 192 197 180 171 178 165 174 159 153 224 224 228 263 288 294 299 306 308 319 333 340 348 348 346 358 16 26 31 50 40 2 27 55 32 13 18 17 16 29 34 33 41 47 52 60 67 66 61 59 58
184 182 185 186 186 188 194 200 202 201 197 199 197 195 199 198 206 204 198 201 185 180 197 190 184 186 198 196 176 171 180 195 198 187 191 192 189 169 171 185 161 182 204 210 230 232 237 257 285 300 311 325 329 331 341 341 325 326 336 348 14 31 45 60 22 10 44 59 52 43 35 23 20 32 31 30 41 52 61 66 70 71 67 63 60
191 186 187 188 189 189 191 198 204 207 201 199 201 197 201 202 206 205 200 202 191 186 192 185 186 188 198 205 186 175 174 189 196 185 186 189 184 174 178 194 186 194 210 222 245 255 254 255 275 287 302 317 321 324 329 344 342 339 344 347 12 45 68 33 3 41 65 58 68 74 48 35 39 41 31 27 44 59 68 68 70 74 72 67 62
198 192 192 189 189 190 190 193 200 210 206 200 203 201 201 203 205 203 201 205 199 196 195 186 187 192 203 211 198 187 176 183 203 195 185 182 190 191 188 199 203 210 223 242 265 271 273 265 265 272 285 303 298 297 312 335 8 6 7 8 44 70 75 44 25 59 81 69 75 71 59 85 71 55 38 31 51 65 69 70 72 77 74 68 63
202 199 197 193 192 193 193 194 197 209 210 200 204 207 202 204 207 200 199 209 205 203 202 191 189 195 210 215 203 197 184 180 203 211 191 181 195 202 196 204 211 222 234 244 253 253 258 249 243 244 238 290 305 322 336 334 26 48 27 21 40 74 82 58 42 71 91 85 80 52 58 87 83 72 61 45 62 69 72 73 73 74 70 64 60
202 202 200 195 195 197 196 198 200 207 212 203 201 209 207 206 210 202 201 212 210 207 207 200 196 197 209 219 208 202 195 185 193 209 200 188 196 204 210 216 212 224 234 234 244 246 238 226 224 234 224 246 294 160 277 316 48 43 20 22 23 78 105 70 65 84 102 102 89 58 52 74 77 77 78 74 77 74 74 75 71 68 63 57 53
200 203 202 198 197 199 199 199 203 208 213 207 200 205 209 207 210 206 206 216 214 211 212 209 205 201 206 218 215 209 206 196 194 202 201 197 199 203 215 223 220 226 227 225 238 233 226 230 222 223 222 220 252 250 245 251 68 11 320 25 33 100 158 106 97 106 108 103 96 78 60 67 71 71 76 89 92 83 78 75 69 61 54 48 44
199 204 205 203 199 200 203 203 205 207 212 212 203 202 206 206 208 207 209 217 217 213 213 211 210 207 207 214 219 217 213 204 200 202 200 200 205 211 215 219 228 229 216 216 224 216 218 226 211 205 219 221 234 240 247 245 190 230 268 170 134 150 143 110 118 131 105 92 85 84 82 78 76 71 77 91 97 93 84 75 62 50 43 37 34
199 203 204 205 201 201 205 206 206 205 208 214 209 203 203 205 205 204 208 215 217 214 209 208 209 209 207 210 216 219 217 209 205 206 205 203 207 218 218 216 226 223 214 216 215 219 227 227 222 222 225 226 234 245 283 271 177 214 255 168 160 171 137 121 132 130 110 100 82 87 99 99 88 78 80 91 98 94 85 73 57 47 41 33 28
197 200 203 206 204 203 204 206 209 207 206 209 210 206 202 203 204 203 206 210 214 214 208 205 209 209 207 208 212 217 217 209 207 209 210 208 209 218 220 217 223 218 213 216 215 224 233 234 235 234 224 217 237 260 304 281 210 233 226 151 165 176 143 131 134 125 122 122 95 94 102 104 100 88 82 89 97 90 77 67 54 45 42 37 29
197 199 202 205 205 203 202 205 209 209 207 205 205 205 202 202 203 203 204 206 209 210 207 205 207 208 208 209 211 214 215 210 210 212 212 211 209 217 221 216 220 219 212 214 220 222 224 227 224 222 217 204 226 254 268 279 265 249 166 138 139 152 140 134 140 142 148 137 97 100 102 99 107 97 85 89 93 84 71 60 49 41 38 38 35
198 200 202 204 204 203 203 205 207 207 208 206 204 205 205 204 204 204 204 205 208 208 206 206 207 206 207 210 213 214 214 212 213 213 213 213 209 213 219 215 217 220 214 213 219 223 223 224 214 216 221 216 220 225 235 259 274 271 150 135 122 133 142 148 153 159 165 138 93 100 105 98 108 106 101 105 92 77 66 54 42 38 34 34 34
200 201 202 204 204 204 206 206 207 207 208 208 206 206 206 206 206 207 205 205 208 209 209 209 211 210 208 209 214 216 215 213 214 214 213 213 213 212 216 218 217 218 216 211 216 224 227 228 224 220 221 226 224 215 227 231 221 276 162 151 150 140 150 173 163 163 170 140 89 94 106 104 108 113 121 124 102 75 61 50 39 36 33 31 28
201 201 202 204 205 206 207 207 207 208 209 208 208 208 207 206 206 209 209 208 210 211 211 213 216 216 214 212 214 218 219 216 216 217 214 213 216 215 215 218 217 218 218 212 216 224 225 224 225 219 211 216 218 208 214 217 209 218 201 180 172 150 186 195 163 160 170 154 96 86 99 112 114 111 121 129 117 86 61 49 39 35 31 27 20
202 202 202 203 205 207 207 207 207 208 210 210 209 208 207 205 204 206 208 208 210 209 209 212 214 217 218 217 216 218 219 219 217 218 219 217 216 217 216 216 215 216 216 216 217 221 224 221 219 219 211 208 211 203 206 215 216 218 220 209 165 160 203 169 152 158 172 166 144 94 88 108 122 110 111 128 136 109 63 46 38 35 27 19 11
206 205 205 205 206 207 207 207 207 208 210 210 209 206 206 204 201 200 200 201 204 206 206 209 210 213 217 218 218 218 218 220 219 219 220 219 218 216 216 217 217 217 217 220 220 218 224 220 214 219 212 203 208 204 207 216 216 221 226 224 211 213 161 153 145 153 170 169 176 154 92 98 122 115 105 120 147 137 71 41 34 33 26 11 5
209 208 208 208 208 207 206 207 207 208 208 208 207 206 205 205 204 203 203 203 204 207 209 210 211 212 215 217 217 217 218 220 220 219 219 219 219 217 216 218 219 220 220 221 220 219 222 216 211 217 209 202 211 214 213 210 204 216 222 220 223 200 159 160 158 147 155 171 184 186 167 88 115 113 101 99 141 147 95 39 28 29 24 6 359
209 208 209 210 209 208 208 207 208 208 207 207 207 207 206 205 206 207 208 209 210 210 210 211 214 214 214 216 215 215 216 218 218 218 217 218 219 217 216 219 220 221 221 221 220 218 216 210 209 214 210 205 214 222 220 211 209 214 212 209 213 194 173 168 163 154 145 156 179 188 180 75 196 137 99 80 78 152 127 45 22 23 18 359 355
209 209 210 211 210 209 209 208 209 209 208 207 208 209 208 207 207 208 210 213 214 213 211 211 213 212 212 213 213 213 214 215 215 216 216 217 219 217 215 218 220 219 220 220 218 216 213 210 214 220 216 210 214 220 218 216 220 217 203 194 190 182 169 153 154 153 135 142 169 184 176 183 223 203 199 71 48 42 148 62 20 16 7 351 351
210 211 212 212 211 211 210 209 210 209 209 208 208 210 210 208 208 209 211 212 212 211 210 210 211 209 209 209 209 211 211 211 213 214 215 215 217 217 215 217 218 219 219 218 217 216 215 217 222 223 216 209 210 214 213 214 219 219 209 194 181 172 165 157 163 156 135 146 170 191 196 205 205 218 254 217 39 11 145 73 17 8 356 344 345
210 210 211 211 211 211 211 212 212 211 210 209 209 210 210 209 210 212 212 212 210 208 208 210 210 209 210 209 208 210 210 211 213 213 213 214 215 215 216 217 217 218 218 219 220 221 221 223 222 216 209 204 205 209 209 206 207 212 212 203 190 179 175 179 179 172 160 158 169 207 215 215 230 255 272 240 323 356 349 292 357 358 350 340 336